Year,Month,Day,Hour,Minute,Value (Times are PST for temperature in C)
2007,05,22,00,00,9.30
2007,05,22,00,01,9.30
2007,05,22,00,02,9.30
2007,05,22,00,03,9.30
2007,05,22,00,04,9.30
2007,05,22,00,05,9.30
2007,05,22,00,06,9.20
2007,05,22,00,07,9.20
2007,05,22,00,08,9.20
2007,05,22,00,09,9.20
2007,05,22,00,10,9.20
2007,05,22,00,11,9.20
2007,05,22,00,12,9.20
2007,05,22,00,13,9.10
2007,05,22,00,14,9.10
2007,05,22,00,15,9.10
2007,05,22,00,16,9.00
2007,05,22,00,17,9.00
2007,05,22,00,18,9.00
2007,05,22,00,19,9.00
2007,05,22,00,20,8.90
2007,05,22,00,21,8.90
2007,05,22,00,22,8.90
2007,05,22,00,23,8.80
2007,05,22,00,24,8.80
2007,05,22,00,25,8.80
2007,05,22,00,26,8.80
2007,05,22,00,27,8.80
2007,05,22,00,28,8.80
2007,05,22,00,29,8.80
2007,05,22,00,30,8.70
2007,05,22,00,31,8.70
2007,05,22,00,32,8.70
2007,05,22,00,33,8.70
2007,05,22,00,34,8.70
2007,05,22,00,35,8.60
2007,05,22,00,36,8.60
2007,05,22,00,37,8.60
2007,05,22,00,38,8.50
2007,05,22,00,39,8.50
2007,05,22,00,40,8.40
2007,05,22,00,41,8.40
2007,05,22,00,42,8.40
2007,05,22,00,43,8.30
2007,05,22,00,44,8.30
2007,05,22,00,45,8.30
2007,05,22,00,46,8.30
2007,05,22,00,47,8.30
2007,05,22,00,48,8.30
2007,05,22,00,49,8.30
2007,05,22,00,50,8.30
2007,05,22,00,51,8.30
2007,05,22,00,52,8.30
2007,05,22,00,53,8.40
2007,05,22,00,54,8.40
2007,05,22,00,55,8.30
2007,05,22,00,56,8.30
2007,05,22,00,57,8.30
2007,05,22,00,58,8.30
2007,05,22,00,59,8.30
2007,05,22,01,00,8.20
2007,05,22,01,01,8.20
2007,05,22,01,02,8.20
2007,05,22,01,03,8.20
2007,05,22,01,04,8.20
2007,05,22,01,05,8.20
2007,05,22,01,06,8.20
2007,05,22,01,07,8.10
2007,05,22,01,08,8.10
2007,05,22,01,09,8.10
2007,05,22,01,10,8.10
2007,05,22,01,11,8.10
2007,05,22,01,12,8.00
2007,05,22,01,13,8.00
2007,05,22,01,14,8.00
2007,05,22,01,15,8.00
2007,05,22,01,16,8.00
2007,05,22,01,17,8.00
2007,05,22,01,18,8.00
2007,05,22,01,19,7.90
2007,05,22,01,20,7.90
2007,05,22,01,21,7.90
2007,05,22,01,22,7.90
2007,05,22,01,23,7.90
2007,05,22,01,24,7.90
2007,05,22,01,25,7.90
2007,05,22,01,26,7.80
2007,05,22,01,27,7.80
2007,05,22,01,28,7.80
2007,05,22,01,29,7.80
2007,05,22,01,30,7.80
2007,05,22,01,31,7.80
2007,05,22,01,32,7.80
2007,05,22,01,33,7.70
2007,05,22,01,34,7.70
2007,05,22,01,35,7.70
2007,05,22,01,36,7.70
2007,05,22,01,37,7.70
2007,05,22,01,38,7.60
2007,05,22,01,39,7.60
2007,05,22,01,40,7.60
2007,05,22,01,41,7.50
2007,05,22,01,42,7.50
2007,05,22,01,43,7.40
2007,05,22,01,44,7.40
2007,05,22,01,45,7.30
2007,05,22,01,46,7.30
2007,05,22,01,47,7.20
2007,05,22,01,48,7.20
2007,05,22,01,49,7.10
2007,05,22,01,50,7.10
2007,05,22,01,51,7.10
2007,05,22,01,52,7.10
2007,05,22,01,53,7.10
2007,05,22,01,54,7.10
2007,05,22,01,55,7.00
2007,05,22,01,56,7.00
2007,05,22,01,57,7.00
2007,05,22,01,58,6.90
2007,05,22,01,59,6.90
2007,05,22,02,00,6.90
2007,05,22,02,01,6.80
2007,05,22,02,02,6.80
2007,05,22,02,03,6.80
2007,05,22,02,04,6.80
2007,05,22,02,05,6.80
2007,05,22,02,06,6.80
2007,05,22,02,07,6.70
2007,05,22,02,08,6.70
2007,05,22,02,09,6.70
2007,05,22,02,10,6.60
2007,05,22,02,11,6.60
2007,05,22,02,12,6.60
2007,05,22,02,13,6.60
2007,05,22,02,14,6.60
2007,05,22,02,15,6.60
2007,05,22,02,16,6.60
2007,05,22,02,17,6.60
2007,05,22,02,18,6.60
2007,05,22,02,19,6.60
2007,05,22,02,20,6.60
2007,05,22,02,21,6.60
2007,05,22,02,22,6.60
2007,05,22,02,23,6.60
2007,05,22,02,24,6.60
2007,05,22,02,25,6.60
2007,05,22,02,26,6.60
2007,05,22,02,27,6.60
2007,05,22,02,28,6.50
2007,05,22,02,29,6.40
2007,05,22,02,30,6.40
2007,05,22,02,31,6.40
2007,05,22,02,32,6.40
2007,05,22,02,33,6.40
2007,05,22,02,34,6.30
2007,05,22,02,35,6.30
2007,05,22,02,36,6.20
2007,05,22,02,37,6.20
2007,05,22,02,38,6.20
2007,05,22,02,39,6.20
2007,05,22,02,40,6.20
2007,05,22,02,41,6.10
2007,05,22,02,42,6.10
2007,05,22,02,43,6.10
2007,05,22,02,44,6.10
2007,05,22,02,45,6.00
2007,05,22,02,46,6.00
2007,05,22,02,47,6.00
2007,05,22,02,48,6.00
2007,05,22,02,49,5.90
2007,05,22,02,50,5.90
2007,05,22,02,51,5.80
2007,05,22,02,52,5.80
2007,05,22,02,53,5.80
2007,05,22,02,54,5.70
2007,05,22,02,55,5.70
2007,05,22,02,56,5.70
2007,05,22,02,57,5.70
2007,05,22,02,58,5.70
2007,05,22,02,59,5.70
2007,05,22,03,00,5.70
2007,05,22,03,01,5.70
2007,05,22,03,02,5.70
2007,05,22,03,03,5.70
2007,05,22,03,04,5.70
2007,05,22,03,05,5.70
2007,05,22,03,06,5.70
2007,05,22,03,07,5.70
2007,05,22,03,08,5.70
2007,05,22,03,09,5.60
2007,05,22,03,10,5.60
2007,05,22,03,11,5.60
2007,05,22,03,12,5.60
2007,05,22,03,13,5.60
2007,05,22,03,14,5.60
2007,05,22,03,15,5.60
2007,05,22,03,16,5.60
2007,05,22,03,17,5.50
2007,05,22,03,18,5.50
2007,05,22,03,19,5.50
2007,05,22,03,20,5.40
2007,05,22,03,21,5.40
2007,05,22,03,22,5.50
2007,05,22,03,23,5.50
2007,05,22,03,24,5.50
2007,05,22,03,25,5.50
2007,05,22,03,26,5.60
2007,05,22,03,27,5.60
2007,05,22,03,28,5.60
2007,05,22,03,29,5.60
2007,05,22,03,30,5.60
2007,05,22,03,31,5.70
2007,05,22,03,32,5.70
2007,05,22,03,33,5.70
2007,05,22,03,34,5.60
2007,05,22,03,35,5.60
2007,05,22,03,36,5.60
2007,05,22,03,37,5.50
2007,05,22,03,38,5.50
2007,05,22,03,39,5.50
2007,05,22,03,40,5.50
2007,05,22,03,41,5.50
2007,05,22,03,42,5.50
2007,05,22,03,43,5.40
2007,05,22,03,44,5.40
2007,05,22,03,45,5.40
2007,05,22,03,46,5.40
2007,05,22,03,47,5.40
2007,05,22,03,48,5.40
2007,05,22,03,49,5.40
2007,05,22,03,50,5.40
2007,05,22,03,51,5.40
2007,05,22,03,52,5.40
2007,05,22,03,53,5.40
2007,05,22,03,54,5.40
2007,05,22,03,55,5.30
2007,05,22,03,56,5.30
2007,05,22,03,57,5.30
2007,05,22,03,58,5.30
2007,05,22,03,59,5.30
2007,05,22,04,00,5.30
2007,05,22,04,01,5.30
2007,05,22,04,02,5.30
2007,05,22,04,03,5.30
2007,05,22,04,04,5.30
2007,05,22,04,05,5.30
2007,05,22,04,06,5.30
2007,05,22,04,07,5.20
2007,05,22,04,08,5.20
2007,05,22,04,09,5.20
2007,05,22,04,10,5.30
2007,05,22,04,11,5.30
2007,05,22,04,12,5.30
2007,05,22,04,13,5.20
2007,05,22,04,14,5.20
2007,05,22,04,15,5.20
2007,05,22,04,16,5.20
2007,05,22,04,17,5.10
2007,05,22,04,18,5.10
2007,05,22,04,19,5.10
2007,05,22,04,20,5.10
2007,05,22,04,21,5.10
2007,05,22,04,22,5.10
2007,05,22,04,23,5.10
2007,05,22,04,24,5.10
2007,05,22,04,25,5.10
2007,05,22,04,26,5.10
2007,05,22,04,27,5.10
2007,05,22,04,28,5.10
2007,05,22,04,29,5.10
2007,05,22,04,30,5.10
2007,05,22,04,31,5.10
2007,05,22,04,32,4.90
2007,05,22,04,33,4.90
2007,05,22,04,34,4.90
2007,05,22,04,35,4.90
2007,05,22,04,36,4.90
2007,05,22,04,37,4.80
2007,05,22,04,38,4.80
2007,05,22,04,39,4.80
2007,05,22,04,40,4.80
2007,05,22,04,41,4.80
2007,05,22,04,42,4.80
2007,05,22,04,43,4.90
2007,05,22,04,44,4.90
2007,05,22,04,45,4.90
2007,05,22,04,46,4.90
2007,05,22,04,47,4.90
2007,05,22,04,48,4.90
2007,05,22,04,49,5.10
2007,05,22,04,50,5.10
2007,05,22,04,51,5.10
2007,05,22,04,52,5.10
2007,05,22,04,53,5.10
2007,05,22,04,54,5.10
2007,05,22,04,55,5.10
2007,05,22,04,56,5.10
2007,05,22,04,57,5.10
2007,05,22,04,58,5.10
2007,05,22,04,59,5.10
2007,05,22,05,00,5.10
2007,05,22,05,01,5.20
2007,05,22,05,02,5.20
2007,05,22,05,03,5.20
2007,05,22,05,04,5.20
2007,05,22,05,05,5.20
2007,05,22,05,06,5.20
2007,05,22,05,07,5.20
2007,05,22,05,08,5.20
2007,05,22,05,09,5.20
2007,05,22,05,10,5.20
2007,05,22,05,11,5.20
2007,05,22,05,12,5.20
2007,05,22,05,13,5.20
2007,05,22,05,14,5.20
2007,05,22,05,15,5.20
2007,05,22,05,16,5.20
2007,05,22,05,17,5.20
2007,05,22,05,18,5.10
2007,05,22,05,19,5.10
2007,05,22,05,20,5.10
2007,05,22,05,21,5.10
2007,05,22,05,22,5.10
2007,05,22,05,23,5.10
2007,05,22,05,24,5.10
2007,05,22,05,25,5.10
2007,05,22,05,26,5.10
2007,05,22,05,27,5.10
2007,05,22,05,28,5.10
2007,05,22,05,29,5.10
2007,05,22,05,30,5.10
2007,05,22,05,31,5.10
2007,05,22,05,32,4.90
2007,05,22,05,33,4.90
2007,05,22,05,34,4.90
2007,05,22,05,35,4.90
2007,05,22,05,36,4.90
2007,05,22,05,37,4.90
2007,05,22,05,38,4.90
2007,05,22,05,39,4.90
2007,05,22,05,40,4.90
2007,05,22,05,41,4.90
2007,05,22,05,42,5.00
2007,05,22,05,43,5.10
2007,05,22,05,44,5.10
2007,05,22,05,45,5.10
2007,05,22,05,46,5.10
2007,05,22,05,47,5.10
2007,05,22,05,48,5.10
2007,05,22,05,49,5.10
2007,05,22,05,50,5.20
2007,05,22,05,51,5.20
2007,05,22,05,52,5.20
2007,05,22,05,53,5.20
2007,05,22,05,54,5.20
2007,05,22,05,55,5.20
2007,05,22,05,56,5.20
2007,05,22,05,57,5.20
2007,05,22,05,58,5.30
2007,05,22,05,59,5.30
2007,05,22,06,00,5.30
2007,05,22,06,01,5.30
2007,05,22,06,02,5.30
2007,05,22,06,03,5.30
2007,05,22,06,04,5.30
2007,05,22,06,05,5.30
2007,05,22,06,06,5.30
2007,05,22,06,07,5.30
2007,05,22,06,08,5.20
2007,05,22,06,09,5.20
2007,05,22,06,10,5.20
2007,05,22,06,11,5.30
2007,05,22,06,12,5.30
2007,05,22,06,13,5.30
2007,05,22,06,14,5.30
2007,05,22,06,15,5.30
2007,05,22,06,16,5.40
2007,05,22,06,17,5.40
2007,05,22,06,18,5.40
2007,05,22,06,19,5.50
2007,05,22,06,20,5.50
2007,05,22,06,21,5.50
2007,05,22,06,22,5.50
2007,05,22,06,23,5.50
2007,05,22,06,24,5.60
2007,05,22,06,25,5.60
2007,05,22,06,26,5.60
2007,05,22,06,27,5.70
2007,05,22,06,28,5.70
2007,05,22,06,29,5.70
2007,05,22,06,30,5.80
2007,05,22,06,31,5.80
2007,05,22,06,32,5.90
2007,05,22,06,33,5.90
2007,05,22,06,34,5.90
2007,05,22,06,35,6.00
2007,05,22,06,36,6.00
2007,05,22,06,37,6.00
2007,05,22,06,38,6.00
2007,05,22,06,39,6.10
2007,05,22,06,40,6.10
2007,05,22,06,41,6.10
2007,05,22,06,42,6.10
2007,05,22,06,43,6.10
2007,05,22,06,44,6.20
2007,05,22,06,45,6.20
2007,05,22,06,46,6.20
2007,05,22,06,47,6.20
2007,05,22,06,48,6.20
2007,05,22,06,49,6.20
2007,05,22,06,50,6.20
2007,05,22,06,51,6.30
2007,05,22,06,52,6.30
2007,05,22,06,53,6.30
2007,05,22,06,54,6.40
2007,05,22,06,55,6.40
2007,05,22,06,56,6.40
2007,05,22,06,57,6.40
2007,05,22,06,58,6.40
2007,05,22,06,59,6.40
2007,05,22,07,00,6.50
2007,05,22,07,01,6.60
2007,05,22,07,02,6.60
2007,05,22,07,03,6.60
2007,05,22,07,04,6.60
2007,05,22,07,05,6.60
2007,05,22,07,06,6.60
2007,05,22,07,07,6.60
2007,05,22,07,08,6.60
2007,05,22,07,09,6.60
2007,05,22,07,10,6.70
2007,05,22,07,11,6.70
2007,05,22,07,12,6.70
2007,05,22,07,13,6.80
2007,05,22,07,14,6.80
2007,05,22,07,15,6.80
2007,05,22,07,16,6.80
2007,05,22,07,17,6.80
2007,05,22,07,18,6.90
2007,05,22,07,19,6.90
2007,05,22,07,20,7.00
2007,05,22,07,21,7.00
2007,05,22,07,22,7.10
2007,05,22,07,23,7.10
2007,05,22,07,24,7.20
2007,05,22,07,25,7.30
2007,05,22,07,26,7.30
2007,05,22,07,27,7.30
2007,05,22,07,28,7.40
2007,05,22,07,29,7.40
2007,05,22,07,30,7.50
2007,05,22,07,31,7.50
2007,05,22,07,32,7.60
2007,05,22,07,33,7.70
2007,05,22,07,34,7.70
2007,05,22,07,35,7.80
2007,05,22,07,36,7.90
2007,05,22,07,37,8.00
2007,05,22,07,38,8.10
2007,05,22,07,39,8.20
2007,05,22,07,40,8.30
2007,05,22,07,41,8.40
2007,05,22,07,42,8.50
2007,05,22,07,43,8.50
2007,05,22,07,44,8.60
2007,05,22,07,45,8.70
2007,05,22,07,46,8.70
2007,05,22,07,47,8.80
2007,05,22,07,48,8.80
2007,05,22,07,49,8.90
2007,05,22,07,50,9.00
2007,05,22,07,51,9.00
2007,05,22,07,52,9.10
2007,05,22,07,53,9.20
2007,05,22,07,54,9.20
2007,05,22,07,55,9.20
2007,05,22,07,56,9.20
2007,05,22,07,57,9.20
2007,05,22,07,58,9.30
2007,05,22,07,59,9.30
2007,05,22,08,00,9.40
2007,05,22,08,01,9.40
2007,05,22,08,02,9.50
2007,05,22,08,03,9.60
2007,05,22,08,04,9.60
2007,05,22,08,05,9.70
2007,05,22,08,06,9.70
2007,05,22,08,07,9.70
2007,05,22,08,08,9.80
2007,05,22,08,09,9.90
2007,05,22,08,10,9.90
2007,05,22,08,11,10.10
2007,05,22,08,12,10.10
2007,05,22,08,13,10.10
2007,05,22,08,14,10.20
2007,05,22,08,15,10.30
2007,05,22,08,16,10.40
2007,05,22,08,17,10.50
2007,05,22,08,18,10.60
2007,05,22,08,19,10.60
2007,05,22,08,20,10.60
2007,05,22,08,21,10.50
2007,05,22,08,22,10.40
2007,05,22,08,23,10.40
2007,05,22,08,24,10.30
2007,05,22,08,25,10.30
2007,05,22,08,26,10.30
2007,05,22,08,27,10.30
2007,05,22,08,28,10.40
2007,05,22,08,29,10.40
2007,05,22,08,30,10.40
2007,05,22,08,31,10.40
2007,05,22,08,32,10.20
2007,05,22,08,33,10.10
2007,05,22,08,34,10.10
2007,05,22,08,35,10.20
2007,05,22,08,36,10.20
2007,05,22,08,37,10.20
2007,05,22,08,38,10.20
2007,05,22,08,39,10.30
2007,05,22,08,40,10.40
2007,05,22,08,41,10.40
2007,05,22,08,42,10.40
2007,05,22,08,43,10.50
2007,05,22,08,44,10.60
2007,05,22,08,45,10.60
2007,05,22,08,46,10.60
2007,05,22,08,47,10.70
2007,05,22,08,48,10.70
2007,05,22,08,49,10.70
2007,05,22,08,50,10.60
2007,05,22,08,51,10.50
2007,05,22,08,52,10.40
2007,05,22,08,53,10.50
2007,05,22,08,54,10.60
2007,05,22,08,55,10.60
2007,05,22,08,56,10.60
2007,05,22,08,57,10.70
2007,05,22,08,58,10.80
2007,05,22,08,59,10.80
2007,05,22,09,00,10.90
2007,05,22,09,01,10.90
2007,05,22,09,02,10.90
2007,05,22,09,03,10.90
2007,05,22,09,04,10.80
2007,05,22,09,05,10.80
2007,05,22,09,06,10.80
2007,05,22,09,07,10.90
2007,05,22,09,08,10.90
2007,05,22,09,09,10.90
2007,05,22,09,10,10.90
2007,05,22,09,11,10.90
2007,05,22,09,12,10.70
2007,05,22,09,13,10.60
2007,05,22,09,14,10.60
2007,05,22,09,15,10.50
2007,05,22,09,16,10.40
2007,05,22,09,17,10.40
2007,05,22,09,18,10.30
2007,05,22,09,19,10.30
2007,05,22,09,20,10.20
2007,05,22,09,21,10.20
2007,05,22,09,22,10.20
2007,05,22,09,23,10.20
2007,05,22,09,24,10.20
2007,05,22,09,25,10.20
2007,05,22,09,26,10.20
2007,05,22,09,27,10.20
2007,05,22,09,28,10.30
2007,05,22,09,29,10.30
2007,05,22,09,30,10.30
2007,05,22,09,31,10.40
2007,05,22,09,32,10.40
2007,05,22,09,33,10.50
2007,05,22,09,34,10.60
2007,05,22,09,35,10.60
2007,05,22,09,36,10.60
2007,05,22,09,37,10.60
2007,05,22,09,38,10.60
2007,05,22,09,39,10.80
2007,05,22,09,40,10.90
2007,05,22,09,41,10.90
2007,05,22,09,42,11.00
2007,05,22,09,43,11.10
2007,05,22,09,44,11.20
2007,05,22,09,45,11.30
2007,05,22,09,46,11.50
2007,05,22,09,47,11.60
2007,05,22,09,48,11.60
2007,05,22,09,49,11.60
2007,05,22,09,50,11.70
2007,05,22,09,51,11.80
2007,05,22,09,52,11.90
2007,05,22,09,53,12.00
2007,05,22,09,54,12.00
2007,05,22,09,55,12.00
2007,05,22,09,56,12.10
2007,05,22,09,57,12.10
2007,05,22,09,58,12.10
2007,05,22,09,59,12.10
2007,05,22,10,00,12.00
2007,05,22,10,01,12.00
2007,05,22,10,02,12.00
2007,05,22,10,03,11.90
2007,05,22,10,04,11.90
2007,05,22,10,05,11.90
2007,05,22,10,06,12.00
2007,05,22,10,07,12.10
2007,05,22,10,08,12.20
2007,05,22,10,09,12.30
2007,05,22,10,10,12.30
2007,05,22,10,11,12.40
2007,05,22,10,12,12.50
2007,05,22,10,13,12.60
2007,05,22,10,14,12.80
2007,05,22,10,15,12.90
2007,05,22,10,16,13.00
2007,05,22,10,17,13.20
2007,05,22,10,18,13.30
2007,05,22,10,19,13.30
2007,05,22,10,20,13.30
2007,05,22,10,21,13.30
2007,05,22,10,22,13.40
2007,05,22,10,23,13.40
2007,05,22,10,24,13.50
2007,05,22,10,25,13.70
2007,05,22,10,26,13.70
2007,05,22,10,27,13.60
2007,05,22,10,28,13.50
2007,05,22,10,29,13.60
2007,05,22,10,30,13.70
2007,05,22,10,31,13.70
2007,05,22,10,32,13.70
2007,05,22,10,33,13.70
2007,05,22,10,34,13.60
2007,05,22,10,35,13.50
2007,05,22,10,36,13.40
2007,05,22,10,37,13.40
2007,05,22,10,38,13.30
2007,05,22,10,39,13.20
2007,05,22,10,40,13.00
2007,05,22,10,41,12.80
2007,05,22,10,42,12.70
2007,05,22,10,43,12.70
2007,05,22,10,44,12.70
2007,05,22,10,45,12.70
2007,05,22,10,46,12.70
2007,05,22,10,47,12.60
2007,05,22,10,48,12.60
2007,05,22,10,49,12.60
2007,05,22,10,50,12.50
2007,05,22,10,51,12.50
2007,05,22,10,52,12.50
2007,05,22,10,53,12.60
2007,05,22,10,54,12.70
2007,05,22,10,55,12.70
2007,05,22,10,56,12.70
2007,05,22,10,57,12.50
2007,05,22,10,58,12.40
2007,05,22,10,59,12.30
2007,05,22,11,00,12.30
2007,05,22,11,01,12.30
2007,05,22,11,02,12.30
2007,05,22,11,03,12.30
2007,05,22,11,04,12.30
2007,05,22,11,05,12.40
2007,05,22,11,06,12.60
2007,05,22,11,07,12.80
2007,05,22,11,08,12.80
2007,05,22,11,09,12.70
2007,05,22,11,10,12.70
2007,05,22,11,11,12.70
2007,05,22,11,12,12.70
2007,05,22,11,13,13.00
2007,05,22,11,14,13.10
2007,05,22,11,15,13.10
2007,05,22,11,16,13.10
2007,05,22,11,17,13.20
2007,05,22,11,18,13.30
2007,05,22,11,19,13.30
2007,05,22,11,20,13.30
2007,05,22,11,21,13.20
2007,05,22,11,22,13.10
2007,05,22,11,23,13.00
2007,05,22,11,24,12.90
2007,05,22,11,25,13.00
2007,05,22,11,26,13.00
2007,05,22,11,27,13.10
2007,05,22,11,28,13.10
2007,05,22,11,29,13.30
2007,05,22,11,30,13.30
2007,05,22,11,31,13.40
2007,05,22,11,32,13.40
2007,05,22,11,33,13.40
2007,05,22,11,34,13.50
2007,05,22,11,35,13.40
2007,05,22,11,36,13.30
2007,05,22,11,37,13.40
2007,05,22,11,38,13.60
2007,05,22,11,39,13.70
2007,05,22,11,40,13.70
2007,05,22,11,41,13.70
2007,05,22,11,42,13.60
2007,05,22,11,43,13.50
2007,05,22,11,44,13.60
2007,05,22,11,45,13.70
2007,05,22,11,46,13.90
2007,05,22,11,47,14.00
2007,05,22,11,48,13.80
2007,05,22,11,49,13.60
2007,05,22,11,50,13.60
2007,05,22,11,51,13.50
2007,05,22,11,52,13.30
2007,05,22,11,53,13.30
2007,05,22,11,54,13.30
2007,05,22,11,55,13.30
2007,05,22,11,56,13.40
2007,05,22,11,57,13.50
2007,05,22,11,58,13.40
2007,05,22,11,59,13.40
2007,05,22,12,00,13.40
2007,05,22,12,01,13.50
2007,05,22,12,02,13.50
2007,05,22,12,03,13.50
2007,05,22,12,04,13.50
2007,05,22,12,05,13.50
2007,05,22,12,06,13.40
2007,05,22,12,07,13.50
2007,05,22,12,08,13.50
2007,05,22,12,09,13.70
2007,05,22,12,10,13.90
2007,05,22,12,11,13.80
2007,05,22,12,12,13.90
2007,05,22,12,13,13.80
2007,05,22,12,14,13.80
2007,05,22,12,15,13.90
2007,05,22,12,16,14.00
2007,05,22,12,17,14.20
2007,05,22,12,18,14.20
2007,05,22,12,19,14.30
2007,05,22,12,20,14.30
2007,05,22,12,21,14.50
2007,05,22,12,22,14.80
2007,05,22,12,23,15.00
2007,05,22,12,24,15.00
2007,05,22,12,25,15.00
2007,05,22,12,26,15.00
2007,05,22,12,27,15.30
2007,05,22,12,28,15.30
2007,05,22,12,29,15.10
2007,05,22,12,30,14.90
2007,05,22,12,31,14.80
2007,05,22,12,32,14.70
2007,05,22,12,33,14.80
2007,05,22,12,34,14.90
2007,05,22,12,35,15.10
2007,05,22,12,36,15.20
2007,05,22,12,37,15.20
2007,05,22,12,38,15.20
2007,05,22,12,39,15.40
2007,05,22,12,40,15.60
2007,05,22,12,41,15.50
2007,05,22,12,42,15.30
2007,05,22,12,43,15.30
2007,05,22,12,44,15.30
2007,05,22,12,45,15.20
2007,05,22,12,46,15.10
2007,05,22,12,47,15.10
2007,05,22,12,48,15.20
2007,05,22,12,49,15.10
2007,05,22,12,50,15.20
2007,05,22,12,51,15.20
2007,05,22,12,52,15.10
2007,05,22,12,53,15.00
2007,05,22,12,54,15.00
2007,05,22,12,55,15.10
2007,05,22,12,56,15.00
2007,05,22,12,57,14.80
2007,05,22,12,58,15.00
2007,05,22,12,59,15.10
2007,05,22,13,00,15.10
2007,05,22,13,01,15.00
2007,05,22,13,02,14.90
2007,05,22,13,03,14.70
2007,05,22,13,04,14.50
2007,05,22,13,05,14.60
2007,05,22,13,06,14.80
2007,05,22,13,07,14.80
2007,05,22,13,08,14.70
2007,05,22,13,09,14.50
2007,05,22,13,10,14.60
2007,05,22,13,11,14.60
2007,05,22,13,12,14.70
2007,05,22,13,13,14.70
2007,05,22,13,14,14.60
2007,05,22,13,15,14.50
2007,05,22,13,16,14.40
2007,05,22,13,17,14.40
2007,05,22,13,18,14.50
2007,05,22,13,19,14.60
2007,05,22,13,20,14.70
2007,05,22,13,21,14.80
2007,05,22,13,22,14.80
2007,05,22,13,23,14.80
2007,05,22,13,24,14.80
2007,05,22,13,25,14.80
2007,05,22,13,26,14.80
2007,05,22,13,27,14.80
2007,05,22,13,28,14.70
2007,05,22,13,29,14.60
2007,05,22,13,30,14.50
2007,05,22,13,31,14.60
2007,05,22,13,32,14.50
2007,05,22,13,33,14.30
2007,05,22,13,34,14.40
2007,05,22,13,35,14.60
2007,05,22,13,36,14.70
2007,05,22,13,37,14.70
2007,05,22,13,38,14.80
2007,05,22,13,39,14.80
2007,05,22,13,40,14.80
2007,05,22,13,41,15.00
2007,05,22,13,42,15.10
2007,05,22,13,43,15.20
2007,05,22,13,44,15.10
2007,05,22,13,45,15.00
2007,05,22,13,46,15.00
2007,05,22,13,47,15.00
2007,05,22,13,48,15.00
2007,05,22,13,49,15.10
2007,05,22,13,50,15.20
2007,05,22,13,51,15.30
2007,05,22,13,52,15.40
2007,05,22,13,53,15.60
2007,05,22,13,54,15.60
2007,05,22,13,55,15.60
2007,05,22,13,56,15.50
2007,05,22,13,57,15.40
2007,05,22,13,58,15.40
2007,05,22,13,59,15.40
2007,05,22,14,00,15.40
2007,05,22,14,01,15.50
2007,05,22,14,02,15.50
2007,05,22,14,03,15.30
2007,05,22,14,04,15.30
2007,05,22,14,05,15.30
2007,05,22,14,06,15.20
2007,05,22,14,07,15.30
2007,05,22,14,08,15.20
2007,05,22,14,09,15.30
2007,05,22,14,10,15.40
2007,05,22,14,11,15.30
2007,05,22,14,12,15.10
2007,05,22,14,13,15.10
2007,05,22,14,14,15.00
2007,05,22,14,15,14.90
2007,05,22,14,16,15.00
2007,05,22,14,17,15.10
2007,05,22,14,18,15.10
2007,05,22,14,19,15.10
2007,05,22,14,20,14.90
2007,05,22,14,21,15.00
2007,05,22,14,22,14.90
2007,05,22,14,23,14.80
2007,05,22,14,24,14.80
2007,05,22,14,25,14.80
2007,05,22,14,26,14.90
2007,05,22,14,27,15.10
2007,05,22,14,28,15.30
2007,05,22,14,29,15.30
2007,05,22,14,30,15.30
2007,05,22,14,31,15.40
2007,05,22,14,32,15.40
2007,05,22,14,33,15.30
2007,05,22,14,34,15.30
2007,05,22,14,35,15.30
2007,05,22,14,36,15.30
2007,05,22,14,37,15.60
2007,05,22,14,38,15.80
2007,05,22,14,39,15.80
2007,05,22,14,40,15.60
2007,05,22,14,41,15.70
2007,05,22,14,42,15.90
2007,05,22,14,43,15.90
2007,05,22,14,44,15.80
2007,05,22,14,45,15.80
2007,05,22,14,46,15.70
2007,05,22,14,47,15.50
2007,05,22,14,48,15.40
2007,05,22,14,49,15.30
2007,05,22,14,50,15.30
2007,05,22,14,51,15.30
2007,05,22,14,52,15.10
2007,05,22,14,53,15.20
2007,05,22,14,54,15.20
2007,05,22,14,55,15.00
2007,05,22,14,56,15.00
2007,05,22,14,57,15.10
2007,05,22,14,58,15.20
2007,05,22,14,59,15.10
2007,05,22,15,00,15.10
2007,05,22,15,01,15.20
2007,05,22,15,02,15.20
2007,05,22,15,03,15.40
2007,05,22,15,04,15.40
2007,05,22,15,05,15.40
2007,05,22,15,06,15.50
2007,05,22,15,07,15.40
2007,05,22,15,08,15.30
2007,05,22,15,09,15.20
2007,05,22,15,10,15.00
2007,05,22,15,11,14.90
2007,05,22,15,12,14.80
2007,05,22,15,13,14.70
2007,05,22,15,14,14.80
2007,05,22,15,15,14.80
2007,05,22,15,16,14.70
2007,05,22,15,17,14.70
2007,05,22,15,18,14.80
2007,05,22,15,19,14.90
2007,05,22,15,20,15.00
2007,05,22,15,21,15.10
2007,05,22,15,22,15.10
2007,05,22,15,23,15.10
2007,05,22,15,24,15.10
2007,05,22,15,25,15.10
2007,05,22,15,26,15.10
2007,05,22,15,27,15.10
2007,05,22,15,28,15.20
2007,05,22,15,29,15.50
2007,05,22,15,30,15.50
2007,05,22,15,31,15.50
2007,05,22,15,32,15.70
2007,05,22,15,33,15.80
2007,05,22,15,34,15.80
2007,05,22,15,35,15.80
2007,05,22,15,36,15.80
2007,05,22,15,37,15.70
2007,05,22,15,38,15.70
2007,05,22,15,39,15.60
2007,05,22,15,40,15.60
2007,05,22,15,41,15.60
2007,05,22,15,42,15.60
2007,05,22,15,43,15.50
2007,05,22,15,44,15.50
2007,05,22,15,45,15.50
2007,05,22,15,46,15.50
2007,05,22,15,47,15.60
2007,05,22,15,48,15.80
2007,05,22,15,49,15.80
2007,05,22,15,50,15.80
2007,05,22,15,51,15.70
2007,05,22,15,52,15.70
2007,05,22,15,53,15.80
2007,05,22,15,54,15.80
2007,05,22,15,55,15.80
2007,05,22,15,56,15.90
2007,05,22,15,57,16.10
2007,05,22,15,58,16.10
2007,05,22,15,59,16.20
2007,05,22,16,00,16.20
2007,05,22,16,01,16.30
2007,05,22,16,02,16.40
2007,05,22,16,03,16.40
2007,05,22,16,04,16.20
2007,05,22,16,05,16.10
2007,05,22,16,06,16.10
2007,05,22,16,07,16.10
2007,05,22,16,08,16.20
2007,05,22,16,09,16.20
2007,05,22,16,10,16.20
2007,05,22,16,11,16.10
2007,05,22,16,12,16.30
2007,05,22,16,13,16.40
2007,05,22,16,14,16.50
2007,05,22,16,15,16.60
2007,05,22,16,16,16.60
2007,05,22,16,17,16.70
2007,05,22,16,18,16.60
2007,05,22,16,19,16.50
2007,05,22,16,20,16.40
2007,05,22,16,21,16.40
2007,05,22,16,22,16.50
2007,05,22,16,23,16.50
2007,05,22,16,24,16.40
2007,05,22,16,25,16.60
2007,05,22,16,26,16.60
2007,05,22,16,27,16.70
2007,05,22,16,28,16.70
2007,05,22,16,29,16.80
2007,05,22,16,30,16.80
2007,05,22,16,31,16.80
2007,05,22,16,32,16.80
2007,05,22,16,33,16.90
2007,05,22,16,34,16.90
2007,05,22,16,35,17.00
2007,05,22,16,36,17.00
2007,05,22,16,37,17.00
2007,05,22,16,38,17.00
2007,05,22,16,39,17.00
2007,05,22,16,40,17.00
2007,05,22,16,41,17.10
2007,05,22,16,42,17.10
2007,05,22,16,43,17.20
2007,05,22,16,44,17.20
2007,05,22,16,45,17.10
2007,05,22,16,46,17.10
2007,05,22,16,47,17.00
2007,05,22,16,48,17.00
2007,05,22,16,49,17.00
2007,05,22,16,50,17.00
2007,05,22,16,51,17.00
2007,05,22,16,52,17.10
2007,05,22,16,53,17.10
2007,05,22,16,54,17.10
2007,05,22,16,55,17.10
2007,05,22,16,56,17.10
2007,05,22,16,57,17.10
2007,05,22,16,58,17.20
2007,05,22,16,59,17.20
2007,05,22,17,00,17.30
2007,05,22,17,01,17.30
2007,05,22,17,02,17.30
2007,05,22,17,03,17.30
2007,05,22,17,04,17.30
2007,05,22,17,05,17.30
2007,05,22,17,06,17.30
2007,05,22,17,07,17.30
2007,05,22,17,08,17.40
2007,05,22,17,09,17.40
2007,05,22,17,10,17.40
2007,05,22,17,11,17.50
2007,05,22,17,12,17.50
2007,05,22,17,13,17.40
2007,05,22,17,14,17.30
2007,05,22,17,15,17.30
2007,05,22,17,16,17.30
2007,05,22,17,17,17.40
2007,05,22,17,18,17.40
2007,05,22,17,19,17.40
2007,05,22,17,20,17.40
2007,05,22,17,21,17.40
2007,05,22,17,22,17.40
2007,05,22,17,23,17.30
2007,05,22,17,24,17.30
2007,05,22,17,25,17.30
2007,05,22,17,26,17.30
2007,05,22,17,27,17.30
2007,05,22,17,28,17.40
2007,05,22,17,29,17.50
2007,05,22,17,30,17.50
2007,05,22,17,31,17.40
2007,05,22,17,32,17.40
2007,05,22,17,33,17.40
2007,05,22,17,34,17.30
2007,05,22,17,35,17.30
2007,05,22,17,36,17.30
2007,05,22,17,37,17.30
2007,05,22,17,38,17.20
2007,05,22,17,39,17.20
2007,05,22,17,40,17.30